Location: Newark
(22.3060°N, 114.2134°E)
Time: 23:16:02
(UTC+00:00)

Vanguard 2 - Pass Details

Date: 11 August 2021
Orbit: 553 x 2937 km, 32.9° (Epoch: 26 September)

Event Time Altitude Azimuth Distance (km) Brightness Sun altitude
Rises 14:40:32 0° 227° (SW) 5,672 11.9 -44.2°
Enters shadow 14:43:40 - 224° (SW) 4,706 11.4 -44.7°
Reaches altitude 10° 14:45:02 10° 222° (SW) 4,278 - -44.9°
Maximum altitude 14:55:07 48° 152° (SSE) 1,616 - -46.2°
Drops below altitude 10° 15:01:15 10° 79° (E) 2,637 - -47.0°
Sets 15:03:24 0° 73° (ENE) 3,367 - -47.2°
